TITAN 3C TRANSTAGE DEB, 1722

Orbit data source: Space-Track

TITAN 3C TRANSTAGE DEB, 1722 is space debris in LEO originally from a launch on Fri, 15 Oct 1965 UTC launched from the Air Force Eastern Test Range (AFETR). Debris objects in space refer to the collection of defunct objects orbiting the Earth. Examples of debris include non-operational satellites, rocket bodies, and fragments generated from explosions, collisions, or faulty payload assembly.

Loading next visibility...
Identifier
1722, 1965-082CD
Orbit
LEO
Country
Flag of USUS
Related business
Manufacturer
Unknown
Mission
Spacecraft
Bus & Motor
Unknown
Mass
Unknown
Launch date (UTC)
1965-10-15 (61 years ago)
Launch vehicle
Unknown
Launch site
Air Force Eastern Test Range (AFETR)
Object type
Payload
Rocket body
Debris
Shape & HBR
Unknown shape, 0.2 m
Radar Cross Section
Small (<0.1 m²)

Expand to show TLE details & history
Last TLE update: 18 hours ago

TLE from 18 hours ago
0 TITAN 3C TRANSTAGE DEB
1  1722U 65082CD  26124.60233483  .00000626  00000-0  11095-3 0  9990
2  1722  32.4173 212.2267 0026959 118.1704 242.1674 14.64006396192613
Epoch: 2026-05-04T14:27Z
TLE epoch observation values (Epoch: 2026-05-04T14:27:21.729Z)
Latitude
-0.00001°
Longitude
132.89698°
Altitude
687.866 km
Speed
7.51 km/s
True Right ascension
14h 08m 54s
True Declination
0° 00' 00"
Sunlit
Object was in full shadow at epoch
Visualization orbit readout
Latitude
Unknown
Longitude
Unknown
Altitude
Unknown
Speed
Unknown
Apparent Right ascension
Unknown
Apparent Declination
Unknown
Sunlit
N/A
Visualization observer readout
Local Sidereal Time
16:33:49
Azimuth
Unknown
Elevation
Unknown
Doppler factor
Unknown
Orbital elements
Apogee altitude
702.861 km
Perigee altitude
664.784 km
Semi-major axis
7,061.96 km
Eccentricity
0.0027
Inclination
32.4173°
RAAN
212.2267°
Arg. of periapsis
118.1704°
True anomaly
241.89464°
Mean anomaly
242.1674°
Eccentric anomaly
242.03098°
Mean motion
3.65726 °/min
Orbital period
98.43 mins
BSTAR
0.00011095

Documentation

Showing up to 5 results
|